Weather History for Tahlequah, OK

Change the Weather History Date:

Sunday, April 20, 2014

  Actual Average (KMKO) Record (KMKO)
Temperature  
Mean Temperature 63 °F -  
Max Temperature 75 °F 70 °F 84 °F (1997)
Min Temperature 51 °F 49 °F 41 °F (2013)
Degree Days  
Heating Degree Days 2    
Growing Degree Days 13 (Base 50)    
Moisture  
Dew Point 52 °F    
Average Humidity 67    
Maximum Humidity 94    
Minimum Humidity 44    
Precipitation  
Precipitation 0.00 in - - ()
Sea Level Pressure  
Sea Level Pressure 30.12 in    
Wind  
Wind Speed 3 mph (South)    
Max Wind Speed 13 mph    
Max Gust Speed 18 mph    
Visibility 10 miles    
Events      
Averages and records for this station are not official NWS values.
T = Trace of Precipitation, MM = Missing Value Source: NWS Daily Summary

Daily Weather History Graph

Daily Weather History Graph

Search for Another Location

Airport:

Trip Planner

Search our weather history database for the weather conditions in past years. The results will help you decide how hot, cold, wet, or windy it might be!

Date:

Astronomy

Apr. 20, 2014 Rise Set
Actual Time 6:40 AM CDT 7:57 PM CDT
Civil Twilight 6:13 AM CDT 8:24 PM CDT
Nautical Twilight 5:42 AM CDT 8:56 PM CDT
Astronomical Twilight 5:08 AM CDT 9:29 PM CDT
Moon 12:34 AM CDT (4/20) 11:05 AM CDT (4/20)
Length of Visible Light 14h 10m
Length of Day
13h 17m
Waning Gibbous, 68% of the Moon is Illuminated
Apr 20
Waning Gibbous
Apr 22
Last Quarter
Apr 29
New
May 6
First Quarter
May 14
Full

Hourly Weather History & Observations

Time (CDT) Temp. Dew Point Humidity Pressure Visibility Wind Dir Wind Speed Gust Speed Precip Events Conditions
12:15 AM 53.6 °F 46.4 °F 77% 30.15 in 10.0 mi Calm Calm - N/A   Clear
12:35 AM 53.6 °F 46.4 °F 77% 30.15 in 10.0 mi Calm Calm - N/A   Clear
12:55 AM 51.8 °F 46.4 °F 82% 30.15 in 10.0 mi Calm Calm - N/A   Clear
1:15 AM 53.6 °F 46.4 °F 77% 30.15 in 10.0 mi Calm Calm - N/A   Clear
1:35 AM 53.6 °F 46.4 °F 77% 30.15 in 10.0 mi Calm Calm - N/A   Clear
1:55 AM 53.6 °F 46.4 °F 77% 30.15 in 10.0 mi Calm Calm - N/A   Clear
2:15 AM 53.6 °F 46.4 °F 77% 30.15 in 10.0 mi Calm Calm - N/A   Clear
2:35 AM 51.8 °F 46.4 °F 82% 30.14 in 10.0 mi Calm Calm - N/A   Clear
2:55 AM 51.8 °F 46.4 °F 82% 30.14 in 10.0 mi Calm Calm - N/A   Clear
3:15 AM 51.8 °F 46.4 °F 82% 30.14 in 10.0 mi Calm Calm - N/A   Clear
3:35 AM 51.8 °F 46.4 °F 82% 30.14 in 10.0 mi Calm Calm - N/A   Clear
3:55 AM 53.6 °F 48.2 °F 82% 30.15 in 10.0 mi Calm Calm - N/A   Clear
4:15 AM 53.6 °F 48.2 °F 82% 30.15 in 10.0 mi Calm Calm - N/A   Clear
4:35 AM 51.8 °F 48.2 °F 88% 30.15 in 10.0 mi Calm Calm - N/A   Clear
4:55 AM 51.8 °F 48.2 °F 88% 30.14 in 10.0 mi Calm Calm - N/A   Clear
5:15 AM 51.8 °F 48.2 °F 88% 30.14 in 10.0 mi Calm Calm - N/A   Clear
5:35 AM 53.6 °F 50.0 °F 88% 30.14 in 10.0 mi Calm Calm - N/A   Clear
5:55 AM 53.6 °F 50.0 °F 88% 30.14 in 10.0 mi Calm Calm - N/A   Clear
6:15 AM 53.6 °F 48.2 °F 82% 30.15 in 10.0 mi Calm Calm - N/A   Clear
6:35 AM 53.6 °F 48.2 °F 82% 30.15 in 10.0 mi Calm Calm - N/A   Clear
6:55 AM 53.6 °F 48.2 °F 82% 30.16 in 10.0 mi Calm Calm - N/A   Clear
7:15 AM 53.6 °F 50.0 °F 88% 30.16 in 10.0 mi Calm Calm - N/A   Clear
7:35 AM 55.4 °F 50.0 °F 82% 30.17 in 10.0 mi Calm Calm - N/A   Clear
7:55 AM 55.4 °F 51.8 °F 88% 30.17 in 10.0 mi Calm Calm - N/A   Clear
8:15 AM 57.2 °F 50.0 °F 77% 30.17 in 10.0 mi Calm Calm - N/A   Clear
8:35 AM 59.0 °F 51.8 °F 77% 30.18 in 10.0 mi Calm Calm - N/A   Clear
8:55 AM 60.8 °F 51.8 °F 72% 30.17 in 10.0 mi SE 3.5 mph - N/A   Clear
9:15 AM 62.6 °F 51.8 °F 68% 30.17 in 10.0 mi SE 4.6 mph - N/A   Clear
9:35 AM 64.4 °F 51.8 °F 64% 30.17 in 10.0 mi SE 8.1 mph - N/A   Clear
9:55 AM 68.0 °F 53.6 °F 60% 30.17 in 10.0 mi SSE 8.1 mph - N/A   Clear
10:15 AM 68.0 °F 51.8 °F 56% 30.17 in 10.0 mi SSE 3.5 mph - N/A   Clear
10:35 AM 69.8 °F 53.6 °F 56% 30.17 in 10.0 mi SSE 9.2 mph - N/A   Clear
10:55 AM 69.8 °F 51.8 °F 53% 30.16 in 10.0 mi South 6.9 mph - N/A   Clear
11:15 AM 69.8 °F 51.8 °F 53% 30.16 in 10.0 mi SSE 9.2 mph - N/A   Clear
11:35 AM 71.6 °F 51.8 °F 50% 30.16 in 10.0 mi South 8.1 mph - N/A   Clear
11:55 AM 71.6 °F 51.8 °F 50% 30.16 in 10.0 mi South 8.1 mph 17.3 mph N/A   Scattered Clouds
12:15 PM 71.6 °F 53.6 °F 53% 30.16 in 10.0 mi South 10.4 mph 16.1 mph N/A   Scattered Clouds
12:35 PM 73.4 °F 53.6 °F 50% 30.16 in 10.0 mi South 10.4 mph - N/A   Scattered Clouds
12:55 PM 71.6 °F 53.6 °F 53% 30.15 in 10.0 mi South 9.2 mph - N/A   Scattered Clouds
1:15 PM 73.4 °F 53.6 °F 50% 30.14 in 10.0 mi South 10.4 mph 17.3 mph N/A   Clear
1:35 PM 73.4 °F 53.6 °F 50% 30.14 in 10.0 mi SSW 10.4 mph - N/A   Clear
1:55 PM 73.4 °F 53.6 °F 50% 30.14 in 10.0 mi South 9.2 mph - N/A   Clear
2:15 PM 73.4 °F 53.6 °F 50% 30.13 in 10.0 mi South 8.1 mph - N/A   Scattered Clouds
2:35 PM 73.4 °F 53.6 °F 50% 30.12 in 10.0 mi South 6.9 mph 16.1 mph N/A   Clear
2:55 PM 75.2 °F 51.8 °F 44% 30.11 in 10.0 mi South 12.7 mph 16.1 mph N/A   Clear
3:15 PM 73.4 °F 51.8 °F 47% 30.11 in 10.0 mi South 6.9 mph - N/A   Clear
3:35 PM 71.6 °F 53.6 °F 53% 30.10 in 10.0 mi SSE 4.6 mph - N/A   Clear
3:55 PM 73.4 °F 53.6 °F 50% 30.09 in 10.0 mi South 8.1 mph - N/A   Clear
4:15 PM 75.2 °F 53.6 °F 47% 30.09 in 10.0 mi SSW 8.1 mph - N/A   Clear
4:35 PM 73.4 °F 53.6 °F 50% 30.09 in 10.0 mi South 8.1 mph - N/A   Scattered Clouds
4:55 PM 73.4 °F 53.6 °F 50% 30.07 in 10.0 mi SSE 8.1 mph - N/A   Scattered Clouds
5:15 PM 73.4 °F 53.6 °F 50% 30.07 in 10.0 mi SSE 4.6 mph - N/A   Clear
5:35 PM 71.6 °F 53.6 °F 53% 30.06 in 10.0 mi South 6.9 mph - N/A   Clear
5:55 PM 71.6 °F 53.6 °F 53% 30.07 in 10.0 mi South 4.6 mph - N/A   Clear
6:15 PM 71.6 °F 51.8 °F 50% 30.06 in 10.0 mi South 5.8 mph - N/A   Clear
6:35 PM 73.4 °F 51.8 °F 47% 30.06 in 10.0 mi SSE 3.5 mph - N/A   Clear
6:55 PM 71.6 °F 51.8 °F 50% 30.06 in 10.0 mi South 4.6 mph - N/A   Clear
7:15 PM 69.8 °F 53.6 °F 56% 30.06 in 10.0 mi SSE 3.5 mph - N/A   Clear
7:35 PM 69.8 °F 51.8 °F 53% 30.06 in 10.0 mi SSE 3.5 mph - N/A   Clear
7:55 PM 68.0 °F 51.8 °F 56% 30.06 in 10.0 mi Calm Calm - N/A   Clear
8:15 PM 68.0 °F 51.8 °F 56% 30.05 in 10.0 mi Calm Calm - N/A   Clear
8:35 PM 66.2 °F 53.6 °F 64% 30.05 in 10.0 mi Calm Calm - N/A   Clear
8:55 PM 66.2 °F 53.6 °F 64% 30.05 in 10.0 mi SSE 4.6 mph - N/A   Scattered Clouds
9:15 PM 68.0 °F 53.6 °F 60% 30.06 in 10.0 mi South 4.6 mph - N/A   Scattered Clouds
9:35 PM 66.2 °F 53.6 °F 64% 30.06 in 10.0 mi South 3.5 mph - N/A   Scattered Clouds
9:55 PM 66.2 °F 53.6 °F 64% 30.06 in 10.0 mi South 4.6 mph - N/A   Scattered Clouds
10:15 PM 64.4 °F 57.2 °F 77% 30.07 in 7.0 mi SSW 9.2 mph 18.4 mph N/A   Scattered Clouds
10:35 PM 62.6 °F 57.2 °F 82% 30.07 in 10.0 mi SSW 4.6 mph - N/A   Scattered Clouds
10:55 PM 62.6 °F 57.2 °F 82% 30.05 in 10.0 mi SE 3.5 mph - N/A   Unknown
11:15 PM 62.6 °F 57.2 °F 82% 30.05 in 10.0 mi South 5.8 mph - N/A   Clear
11:35 PM 60.8 °F 59.0 °F 94% 30.06 in 7.0 mi Calm Calm - N/A   Scattered Clouds
11:55 PM 60.8 °F 59.0 °F 94% 30.06 in 10.0 mi Calm Calm - N/A   Scattered Clouds